This demonstration page uses our WeatherBlox Daily Observations layout. Learn more.

Left ArrowRight Arrow

Hourly Observations for May 1, 2019

Temp ( °F °C ) Dew Point ( °F °C ) Humidity (%) Winds ( mph kmh ) Pressure ( in mb ) Visibility ( mi km ) Precip ( " mm )
12:15 am 00:15 Clear 63 17 63 17 100 100 N N/A 30.01 1016 10 16.0934 N/A
5:24 am 05:24 Clear 64 18 61 16 88 88 S 12 19 29.92 1013 10 16.0934 N/A
5:35 am 05:35 Clear 64 18 61 16 88 88 S 12 19 29.91 1013 10 16.0934 N/A
5:55 am 05:55 Clear 64 18 61 16 88 88 S 10 17 29.91 1013 10 16.0934 N/A
6:15 am 06:15 Clear 64 18 61 16 88 88 S 10 17 29.91 1013 10 16.0934 N/A
6:36 am 06:36 Clear 66 19 61 16 83 83 S 13 20 29.91 1013 10 16.0934 N/A
6:55 am 06:55 Sunny 66 19 61 16 83 83 S 13 20 29.92 1013 10 16.0934 N/A
7:15 am 07:15 Sunny 66 19 63 17 88 88 S 13 20 29.92 1013 10 16.0934 N/A
7:35 am 07:35 Partly Cloudy 66 19 63 17 88 88 S 13 20 29.94 1014 10 16.0934 N/A
7:55 am 07:55 Mostly Cloudy 66 19 63 17 88 88 S 12 19 29.95 1014 10 16.0934 N/A
8:15 am 08:15 Cloudy 66 19 63 17 88 88 S 12 19 29.96 1015 10 16.0934 N/A
8:35 am 08:35 Mostly Cloudy 68 20 64 18 88 88 SSW 12 19 29.96 1014 10 16.0934 N/A
8:56 am 08:56 Partly Cloudy 68 20 64 18 88 88 SSW 13 20 29.96 1014 10 16.0934 N/A
9:15 am 09:15 Mostly Cloudy 70 21 64 18 83 83 SW 20 31 29.96 1014 10 16.0934 N/A
9:35 am 09:35 Cloudy 70 21 64 18 83 83 SW 14 22 29.97 1015 10 16.0934 N/A
9:55 am 09:55 Cloudy 70 21 64 18 83 83 SW 13 20 29.97 1015 10 16.0934 N/A
10:15 am 10:15 Cloudy 70 21 66 19 88 88 SW 12 19 29.96 1014 10 16.0934 N/A
10:35 am 10:35 Cloudy 72 22 66 19 83 83 SSW 13 20 29.95 1014 10 16.0934 N/A
10:55 am 10:55 Cloudy 70 21 66 19 88 88 SSW 15 24 29.94 1014 10 16.0934 N/A
11:15 am 11:15 Cloudy 72 22 66 19 83 83 SSW 15 24 29.93 1014 10 16.0934 N/A
11:35 am 11:35 Cloudy 72 22 66 19 83 83 SSW 17 28 29.94 1014 10 16.0934 N/A
11:55 am 11:55 Cloudy 72 22 66 19 83 83 SSW 21 33 29.94 1014 10 16.0934 N/A
12:15 pm 12:15 Cloudy 73 23 66 19 78 78 SSW 23 37 29.95 1014 10 16.0934 N/A
12:35 pm 12:35 Cloudy 73 23 66 19 78 78 SW 22 35 29.96 1015 10 16.0934 N/A
12:55 pm 12:55 Cloudy 73 23 66 19 78 78 SW 16 26 29.96 1015 10 16.0934 N/A
1:15 pm 13:15 Cloudy 68 20 64 18 88 88 WNW 22 35 29.99 1016 10 16.0934 N/A
1:35 pm 13:35 Cloudy 64 18 63 17 94 94 W 15 24 30 1016 10 16.0934 N/A
1:55 pm 13:55 Cloudy 66 19 63 17 88 88 W 12 19 30.02 1017 10 16.0934 N/A
2:15 pm 14:15 Mostly Cloudy 70 21 64 18 83 83 W 14 22 30.02 1016 10 16.0934 N/A
2:35 pm 14:35 Mostly Cloudy 72 22 64 18 78 78 W 12 19 30.01 1016 10 16.0934 N/A
2:55 pm 14:55 Mostly Cloudy 75 24 66 19 74 74 W 13 20 30.01 1016 10 16.0934 N/A
3:15 pm 15:15 Cloudy 72 22 64 18 78 78 W 16 26 30.02 1017 7 11.26538 N/A
3:35 pm 15:35 Cloudy 72 22 64 18 78 78 WSW 18 30 30.02 1017 10 16.0934 N/A
3:55 pm 15:55 Mostly Cloudy 72 22 64 18 78 78 W 15 24 30.01 1016 10 16.0934 N/A
4:15 pm 16:15 Partly Cloudy 72 22 63 17 73 73 W 21 33 30 1016 10 16.0934 N/A
4:35 pm 16:35 Cloudy 72 22 63 17 73 73 W 14 22 30 1016 10 16.0934 N/A
4:55 pm 16:55 Mostly Cloudy 72 22 63 17 73 73 W 15 24 30.01 1016 10 16.0934 N/A
5:15 pm 17:15 Partly Cloudy 72 22 63 17 73 73 W 10 17 30.01 1016 10 16.0934 N/A
5:35 pm 17:35 Mostly Cloudy 70 21 63 17 78 78 W 14 22 30.02 1016 10 16.0934 N/A
5:55 pm 17:55 Cloudy 70 21 61 16 73 73 W 12 19 30.03 1017 10 16.0934 N/A
6:15 pm 18:15 Cloudy 70 21 61 16 73 73 W 16 26 30.04 1017 10 16.0934 N/A
6:35 pm 18:35 Cloudy 68 20 63 17 83 83 W 12 19 30.04 1017 10 16.0934 N/A
6:55 pm 18:55 Cloudy 66 19 63 17 88 88 W 10 17 30.05 1018 10 16.0934 N/A
7:15 pm 19:15 Cloudy 64 18 64 18 100 100 W 5 7 30.05 1018 10 16.0934 N/A
7:35 pm 19:35 Cloudy 64 18 64 18 100 100 WNW 5 7 30.05 1018 10 16.0934 N/A
7:56 pm 19:56 Cloudy 63 17 63 17 100 100 N N/A 30.06 1018 10 16.0934 N/A
8:15 pm 20:15 Cloudy 63 17 63 17 100 100 N N/A 30.08 1019 10 16.0934 N/A
8:36 pm 20:36 Cloudy 63 17 63 17 100 100 S 3 6 30.07 1018 5 8.0467 N/A
8:55 pm 20:55 Cloudy 63 17 63 17 100 100 WSW 3 6 30.07 1018 5 8.0467 N/A
9:16 pm 21:16 Cloudy 61 16 61 16 100 100 S 5 7 30.06 1018 10 16.0934 N/A
9:35 pm 21:35 Partly Cloudy 61 16 61 16 100 100 S 5 7 30.06 1018 10 16.0934 N/A
9:55 pm 21:55 Partly Cloudy 61 16 61 16 100 100 S 3 6 30.07 1018 10 16.0934 N/A
10:15 pm 22:15 Partly Cloudy 61 16 61 16 100 100 S 5 7 30.07 1018 7 11.26538 N/A
10:35 pm 22:35 Mostly Cloudy 61 16 61 16 100 100 SSW 3 6 30.08 1019 7 11.26538 N/A
10:55 pm 22:55 Partly Cloudy 59 15 59 15 100 100 N N/A 30.08 1019 4 6.43736 N/A
11:15 pm 23:15 Clear 59 15 59 15 100 100 N N/A 30.08 1019 2.5 4.02335 N/A
11:35 pm 23:35 Clear 59 15 59 15 100 100 SSE 3 6 30.08 1019 5 8.0467 N/A
11:55 pm 23:55 Clear 59 15 59 15 100 100 S 5 7 30.08 1019 7 11.26538 N/A

Powered by AerisWeather